Regional Weather Roundup
Issued by NWS Newport/Morehead, NC

Current Version | Previous Version | Text Only | Print | Product List | Glossary Off
Versions: 1 2 3 4 5 6 7 8 9 10 11 12 13 14 15 16 17 18 19 20 21 22 23 24 25 26 27 28 29 30 31 32 33 34 35 36 37 38 39 40 41 42 43 44 45 46 47 48 49 50
000 ASUS42 KMHX 260514 RWRMHX WEATHER ROUNDUP FOR EASTERN NORTH CAROLINA NATIONAL WEATHER SERVICE NEWPORT/MOREHEAD CITY NC 100 AM EDT TUE SEP 26 2017 NOTE: "FAIR" INDICATES FEW OR NO CLOUDS BELOW 12,000 FEET WITH NO SIGNIFICANT WEATHER AND/OR OBSTRUCTIONS TO VISIBILITY NCZ015>017-031-032-045>047-102-103-260600- NORTH COAST CITY SKY/WX TMP DP RH WIND PRES REMARKS EDENTON CLOUDY 72 70 94 N9G16 29.88F ELIZABETH CITY CLOUDY 72 72 100 N13 29.88F KITTY HAWK CLOUDY 71 71 100 N10G21 29.83F FOG MANTEO CLOUDY 72 72 99 NE15G24 29.84F FOG $$ NCZ045>047-081-094-103-104-260600- CENTRAL COAST CITY SKY/WX TMP DP RH WIND PRES REMARKS FRISCO CLOUDY 76 76 100 NE13G22 29.76F $$ NCZ095-097-098-100-101-260600- SOUTHERN COAST CITY SKY/WX TMP DP RH WIND PRES REMARKS BEAUFORT CLOUDY 73 73 100 N18G25 29.78F FOG CEDAR ISLAND NOT AVBL JACKSONVILLE CLOUDY 74 71 91 N14 29.83S PINEY ISLAND N/A N/A N/A N/A N17G26 29.78F WILMINGTON CLOUDY 75 70 84 N12 29.82F $$ NCZ011>013-027>030-043-044-078>080-089-090>093-098-260600- COASTAL PLAIN CITY SKY/WX TMP DP RH WIND PRES REMARKS AHOSKIE CLOUDY 70 68 94 N7 29.91F CLINTON NOT AVBL ELIZABETHTOWN NOT AVBL GOLDSBORO CLOUDY 72 72 100 N9 29.87S GREENVILLE CLOUDY 70 68 94 N8 29.91S HAVELOCK CLOUDY 73 72 96 N17G24 29.82F KENANSVILLE CLOUDY 72 68 88 N8 29.88R KINSTON CLOUDY 72 67 85 N8 29.89S NEW BERN CLOUDY 73 71 93 N9 29.85F RICHLANDS CLOUDY 73 70 90 N14 29.85F ROCKY MOUNT CLOUDY 70 68 93 N10 29.91F WASHINGTON CLOUDY 71 69 92 N10 29.87F WHITEVILLE CLOUDY 74 69 83 N3 29.86S $$ AMZ130-135-150-152-154-156-158-170-250-252-270-ANZ085-086-088-633-658-670-260600- MARINE OBSERVATIONS STATION/POSITION TIME TEMP WIND PRES WAVE SWELL AIR SEA DIR/SP/G HT/PER HT/PER (UTC) (F) (DEG/KT/KT) (MB) (FT/S) (FT/S) CHESAPEAKE LIGHT NOT AVBL 64 E VA BEACH 0450 72 70 40/ 17/ 21 1011.4 17/13 16/13 DUCK 0442 72 76 30/ 24/ 27 1010.6 2 E DUCK 0500 76 N/A 10/15 8/15 OREGON INLET 0442 74 75 30/ 19/ 27 1009.2 13E OREGON INLT 0448 75 N/A 14/15 15/15 HATTERAS CG 0442 76 77 40/ 17/ 23 1007.8 DIAMOND BUOY 0450 77 77 20/ 23/ 29 1005.8 16/13 15/13 CAPE LOOKOUT 0500 75 360/ 19/ 23 1007.6 BEAUFORT LAB 0442 74 75 360/ 16/ 22 1008.1 30 SE NEW RVR IN 0408 76 10/ 21/ 29 1007.6 30 SE NEW RVR IN NOT AVBL 27 SE WRIGHTSVLE 0408 77 79 20/ 21/ 31 1008.2 5 SE WRIGHTSVLE 0408 76 78 10/ 14/ 23 1009.5 225 S CAPE HAT 0450 80 81 320/ 35/ 43 993.0 19/11 41 SE CHARLESTON 0450 79 81 360/ 14/ 17 1009.9 8/11 7/11 $$

USA.gov is the U.S. government's official web portal to all federal, state and local government web resources and services.